User: anonymous   Login
Location: Wayah Bald
(35.1806°N, 83.5603°W)
Time: 01:20:44
(UTC-05:00)
Language:

Meteor 1-27 Rocket - Orbit

View from above orbital plane
View from above orbital plane
View from above satellite
View from above satellite

Ground track
Ground track

The orbit data is extracted from the following two-line orbital elements,

1 09904U 77024B   15029.57531309  .00000206  00000-0  11524-3 0  1684
2 09904 081.2597 250.0810 0054316 256.8358 122.2977 14.06767596940530
Epoch (UTC): 29 January 2015 13:48:27
Eccentricity: 0.0054316
inclination: 81.2597°
perigee height: 831 km
apogee height: 910 km
right ascension of ascending node: 250.0810°
argument of perigee: 256.8358°
revolutions per day: 14.06767596
mean anomaly at epoch: 122.2977°
orbit number at epoch: 94053

The dashed part of the orbit path shows where the satellite is in the earth's shadow,  

DLR